Weather observations for the past three days for
Buckley Space Force Base
Imperial (Metric)
Date Time (mdt) Wind (mph) Vis. (mi.) Weather Sky Cond. Temperature (ºF) Relative Humidity Wind Chill (°F) Heat Index (°F) Pressure Precipitation (in)
Air Dwpt 6 hour altimeter (in) sea level (mb) 1 hr 3 hr 6 hr
Max. Min.
12 09:58 W 6 10.00 A Few Clouds FEW150 90 30.6 12% 86 30.14 1010.3
12 08:58 SW 7 10.00 A Few Clouds FEW150 FEW220 85.3 38.3 19% 82 30.15 1010.7
12 07:58 SW 12 10.00 A Few Clouds FEW160 FEW220 78.1 37.2 23% 78 30.15 1010.7
12 06:58 SW 9 10.00 Partly Cloudy SCT160 SCT220 70.9 37 29% 30.14 1010.3
12 05:58 S 9 10.00 A Few Clouds FEW160 FEW220 67.3 36.3 75.9 67.1 32% 30.12 1010.0
12 04:58 S 8 10.00 Partly Cloudy SCT160 67.8 36.9 32% 30.12 1009.6
12 03:58 S 12 10.00 Fair CLR 69.6 36 29% 30.1 1008.9
12 02:58 S 14 10.00 Fair CLR 71.1 36.3 28% 30.1 1008.9
12 01:58 S 12 10.00 Fair CLR 71.6 35.8 27% 30.11 1009.3
12 00:58 SE 8 10.00 Fair CLR 73.8 35.2 25% 30.13 1010.0
11 23:58 S 12 10.00 Fair CLR 75.4 35.1 94.3 72.3 23% 76 30.14 1010.3
11 22:58 S 8 10.00 Partly Cloudy SCT140 73.9 31.5 21% 30.14 1011.1
11 21:58 SE 9 10.00 A Few Clouds FEW100 FEW150 75.6 31.6 20% 76 30.14 1011.1
11 20:58 SE 5 10.00 Partly Cloudy FEW110 SCT160 SCT190 81.9 29.7 15% 80 30.12 1010.0
11 19:58 Calm 10.00 Mostly Cloudy FEW110 SCT160 BKN220 87.8 30.7 13% 84 30.12 1010.4
11 18:58 W 3 10.00 Partly Cloudy SCT140 SCT220 92.5 28 10% 88 30.11 1010.0
11 17:58 N 9 10.00 Partly Cloudy FEW100 SCT150 SCT220 94.1 26.6 96.3 88.9 9% 89 30.11 1010.0
11 16:58 N 7 G 23 10.00 Partly Cloudy FEW100 SCT140 SCT220 95 24.4 8% 90 30.12 1010.4
11 15:58 NE 8 10.00 Partly Cloudy FEW090 SCT140 SCT220 95 21.2 7% 90 30.13 1010.7
11 14:58 Vrbl 5 10.00 A Few Clouds FEW090 FEW140 93.7 23.5 8% 89 30.15 1011.4
11 13:58 Vrbl 7 10.00 A Few Clouds FEW090 FEW140 93.7 20.3 7% 89 30.16 1011.4
11 12:58 NE 10 10.00 A Few Clouds FEW090 FEW140 93.9 29.1 10% 89 30.18 1011.7
11 11:58 N 9 10.00 A Few Clouds FEW090 FEW140 88.9 33.4 89.8 62.2 14% 85 30.2 1013.2
11 10:58 Calm 10.00 A Few Clouds FEW085 FEW140 85.3 35.4 17% 82 30.21 1013.5
11 09:58 Vrbl 3 10.00 A Few Clouds FEW140 81.7 36.7 20% 80 30.21 1013.9
11 08:58 SW 5 10.00 A Few Clouds FEW140 75.7 38.5 26% 77 30.21 1013.9
11 07:58 SW 7 10.00 A Few Clouds FEW140 70.7 39.4 32% 30.21 1013.9
11 06:58 S 5 10.00 A Few Clouds FEW140 66.2 40.5 39% 30.21 1014.3
11 05:58 S 7 10.00 A Few Clouds FEW140 62.1 38.7 70.7 61.5 42% 30.2 1013.9
11 04:58 S 9 10.00 A Few Clouds FEW140 FEW220 62.2 38.3 41% 30.18 1012.9
11 03:58 S 10 10.00 A Few Clouds FEW140 62.6 38.5 41% 30.19 1013.2
11 02:58 SW 9 10.00 A Few Clouds FEW180 65.5 39.2 38% 30.19 1013.2
11 01:58 S 12 10.00 A Few Clouds FEW190 68.2 37.9 33% 30.19 1012.8
11 00:58 S 12 10.00 A Few Clouds FEW150 70.3 37.4 30% 30.21 1013.5
10 23:58 SW 8 10.00 A Few Clouds FEW150 69.1 37.2 90.1 68.9 31% 30.22 1014.3
10 22:58 S 9 10.00 A Few Clouds FEW150 FEW220 69.8 37.8 31% 30.23 1015.0
10 21:58 S 7 10.00 Partly Cloudy FEW070 SCT140 SCT220 71.6 36.7 28% 30.22 1014.6
10 20:58 W 8 10.00 Mostly Cloudy FEW070 FEW130 BKN220 77.7 34.7 21% 77 30.2 1013.9
10 19:58 W 12 10.00 Mostly Cloudy FEW070 SCT130 BKN220 82.2 33.1 17% 80 30.2 1013.9
10 18:58 N 7 10.00 Mostly Cloudy FEW070 BKN130 BKN220 84.7 30.2 14% 82 30.19 1014.0
10 17:58 N 7 10.00 Mostly Cloudy SCT140 BKN220 88.7 27.5 92.1 84.4 11% 85 30.18 1013.2
10 16:58 N 12 G 17 10.00 A Few Clouds FEW090 FEW220 90.1 26.2 10% 86 30.18 1013.6
10 15:58 E 8 10.00 A Few Clouds FEW090 FEW220 89.4 25.7 10% 85 30.18 1013.2
10 14:58 Vrbl 6 10.00 Partly Cloudy FEW090 FEW130 SCT220 90 26.1 10% 86 30.2 1013.9
10 12:58 N 7 10.00 A Few Clouds FEW090 88 24.6 10% 84 30.24 1015.3
10 11:58 Calm 10.00 A Few Clouds FEW090 84.9 32 84.9 58.8 15% 82 30.25 1015.7
10 10:58 N 5 10.00 A Few Clouds FEW090 81.9 36.9 20% 80 30.26 1016.0
10 09:58 Calm 10.00 A Few Clouds FEW085 FEW140 78.4 36.5 22% 78 30.26 1016.0
10 08:58 Calm 10.00 A Few Clouds FEW085 FEW140 74.3 38.1 27% 30.27 1016.4
10 07:58 SW 8 10.00 A Few Clouds FEW130 68.4 41.7 38% 30.26 1016.4
10 06:58 S 7 10.00 A Few Clouds FEW130 61.7 41.2 47% 30.25 1016.4
10 05:58 S 7 10.00 A Few Clouds FEW130 59.2 40.1 66.2 58.1 49% 30.24 1016.1
10 04:58 SW 6 10.00 Fair CLR 58.8 40.6 51% 30.23 1015.7
10 03:58 S 8 10.00 Fair CLR 59.9 41.2 50% 30.23 1015.7
10 02:58 S 5 10.00 Fair CLR 61.3 41 47% 30.22 1015.0
10 01:58 S 7 10.00 Fair CLR 62.8 40.5 44% 30.23 1015.0
10 00:58 S 7 10.00 A Few Clouds FEW220 63 40.1 43% 30.23 1015.0
09 23:58 S 6 10.00 A Few Clouds FEW220 65.7 40.1 83.8 65.7 39% 30.23 1015.0
09 22:58 S 6 10.00 A Few Clouds FEW130 FEW220 68.5 39.7 35% 30.22 1015.0
09 21:58 SW 7 10.00 Mostly Cloudy FEW090 SCT150 BKN200 70.2 40.5 34% 30.21 1015.0
09 20:58 W 13 10.00 Mostly Cloudy FEW090 BKN150 BKN170 75.4 39 27% 77 30.2 1014.3
09 19:58 W 7 10.00 Mostly Cloudy FEW090 BKN140 BKN170 78.3 36.3 22% 78 30.2 1014.3
09 18:58 W 13 10.00 Mostly Cloudy SCT090 BKN150 BKN170 78.8 35.6 21% 78 30.19 1014.3
09 17:58 NW 13 10.00 Mostly Cloudy FEW090 BKN150 BKN170 83.8 34.3 90.1 82.8 17% 81 30.17 1013.6
09 16:58 NW 10 10.00 Mostly Cloudy FEW090 BKN140 BKN200 82.9 33.6 17% 80 30.16 1013.7
09 15:58 N 12 G 17 10.00 Mostly Cloudy FEW090 BKN140 BKN200 82.9 30.6 15% 80 30.18 1014.0
09 14:58 N 12 G 20 10.00 Mostly Cloudy FEW090 BKN140 BKN200 84.7 28.4 13% 82 30.17 1013.6
09 13:58 N 12 G 20 10.00 Partly Cloudy FEW090 SCT130 SCT200 88 30.9 13% 84 30.17 1012.9
09 12:58 N 12 G 17 10.00 Partly Cloudy FEW090 FEW130 SCT200 86.4 27.7 12% 83 30.18 1013.2
09 11:58 N 8 10.00 Partly Cloudy FEW090 FEW130 SCT200 84 36 84 59.4 18% 81 30.19 1014.0
09 10:58 N 6 10.00 A Few Clouds FEW090 FEW130 79.5 40.6 25% 79 30.19 1014.3
Date Time (mdt) Wind (mph) Vis. (mi.) Weather Sky Cond. Air Dwpt Max. Min. Relative Humidity Wind Chill (°F) Heat Index (°F) altimeter (in) sea level (mb) 1 hr 3 hr 6 hr
6 hour
Temperature (ºF) Pressure Precipitation (in)